カタログに戻る

STARLINK-35432

運用中通信VLEO
NORAD 66021·PAYLOAD·🇺🇸 United States

打ち上げ Oct 16, 2025 から Cape Canaveral Space Force Station

Loading…

次のパス (今後24時間)

TLE

最新Source: CelesTrak SupGP

元期: Sep 14, 2026, 21:37 UTC

1 66021C 25232S   26257.90118056  .00017846  00000+0  52756-3 0  2571
2 66021  53.1565 303.5522 0001177  87.1545 348.3947 15.34363980    19

AllMySatでSTARLINK-35432をリアルタイム追跡

Download on the App Store